This is the latest recevied weather packets stored in our database for station/object KD4MBW. If no packets are shown the sender has not sent any weather packets the latest 10 day(s).
| Time | Temp. | Humidity | Pressure | Rain* | Wind** | Luminosity | Snow |
|---|---|---|---|---|---|---|---|
| 1787865459 | 23.33° C | 99% | 1014.5 hPa | 4.32 mm | - | 30 W/m² | - |
| 1787865154 | 23.33° C | 99% | 1014.7 hPa | 4.32 mm | - | 28 W/m² | - |
| 1787864851 | 23.33° C | 99% | 1014.7 hPa | 4.83 mm | - | 27 W/m² | - |
| 1787864550 | 23.33° C | 99% | 1014.6 hPa | 3.05 mm | - | 25 W/m² | - |
| 1787864245 | 23.33° C | 99% | 1014.6 hPa | 4.83 mm | - | 24 W/m² | - |
| 1787863940 | 23.33° C | 99% | 1014.9 hPa | 1.78 mm | - | 23 W/m² | - |
| 1787863638 | 23.89° C | 99% | 1014.9 hPa | 0 mm | - | 23 W/m² | - |
| 1787863337 | 23.89° C | 99% | 1015.3 hPa | 0 mm | - | 24 W/m² | - |
| 1787863034 | 23.89° C | 99% | 1015.2 hPa | 0 mm | - | 25 W/m² | - |
| 1787862729 | 23.89° C | 99% | 1015.4 hPa | 0 mm | - | 25 W/m² | - |
| 1787862423 | 23.89° C | 99% | 1015.4 hPa | 0 mm | - | 27 W/m² | - |
| 1787862118 | 23.89° C | 99% | 1015.5 hPa | 1.27 mm | - | 29 W/m² | - |
| 1787861813 | 23.89° C | 99% | 1015.4 hPa | 1.27 mm | - | 31 W/m² | - |
| 1787861511 | 23.89° C | 99% | 1015.6 hPa | 0 mm | - | 32 W/m² | - |
| 1787861206 | 23.89° C | 99% | 1015.6 hPa | 0 mm | - | 33 W/m² | - |
| 1787860905 | 23.89° C | 99% | 1015.9 hPa | 0 mm | - | 31 W/m² | - |
| 1787860600 | 23.89° C | 99% | 1015.9 hPa | 0 mm | - | 31 W/m² | - |
| 1787860295 | 23.89° C | 99% | 1015.9 hPa | 1.78 mm | - | 30 W/m² | - |
| 1787859990 | 23.89° C | 99% | 1015.9 hPa | 1.78 mm | - | 26 W/m² | - |
| 1787859686 | 23.89° C | 99% | 1016.1 hPa | 6.1 mm | - | 23 W/m² | - |
| 1787859385 | 23.33° C | 99% | 1015.9 hPa | 13.21 mm | - | 23 W/m² | - |
| 1787859081 | 23.33° C | 99% | 1016.1 hPa | 10.67 mm | - | 22 W/m² | - |
| 1787858777 | 23.33° C | 99% | 1016.3 hPa | 6.6 mm | - | 23 W/m² | - |
| 1787858472 | 23.33° C | 99% | 1016.2 hPa | 10.16 mm | - | 24 W/m² | - |
| 1787858172 | 23.33° C | 99% | 1016.4 hPa | 15.49 mm | - | 23 W/m² | - |
* Rain latest hour (hover to see other rain measurements)
** Current wind speed in m/s (hover to see current wind gust speed)